Location: Joplin, MO
(37.0842°N, 94.5133°W)
Time: 20:40:14
(UTC+02:00)

Transit 2A Rocket - Pass Details

Date: 01 April 2023
Orbit: 584 x 914 km, 66.7° (Epoch: 09 June)

Event Time Altitude Azimuth Distance (km) Brightness Sun altitude
Rises 04:08:05 0° 321° (NW) 3,539 9.5 -18.0°
Reaches altitude 10° 04:10:56 10° 311° (NW) 2,573 8.8 -18.5°
Maximum altitude 04:16:01 30° 253° (WSW) 1,514 7.0 -19.4°
Drops below altitude 10° 04:20:51 10° 194° (SSW) 2,421 7.5 -20.3°
Sets 04:23:28 0° 183° (S) 3,297 8.1 -20.8°
Enters shadow 04:23:28 - 183° (S) 3,298 8.1 -20.8°
